Temp
-5 -5 -5 -5 -5 -5 -6 -6 -6 -5 -5 -6 -6 -6 -6 -6 -6 -6 -7 -7 -7 -7 -7 -7 -8 -8 -8 -8 -8 -8 -8 -8 -8 -8 -9 -9 -9 -9 -9 -9 -9 -9 -9 -9 -9 -8 -8 -8 -8 -8 -8 -8 -8 -8 -8 -8 -7 -7 -7 -7 -7 -7 -7 -7 -7 -7 -7 -7 -7 -7 -7 -7 -7 -7
-5 -5 -5 -5 -5 -5 -5 -6 -6 -6 -5 -5 -5 -6 -6 -6 -6 -6 -6 -7 -7 -7 -7 -7 -8 -8 -8 -8 -8 -8 -8 -8 -8 -8 -9 -9 -9 -9 -9 -9 -9 -9 -9 -9 -8 -8 -8 -8 -8 -8 -8 -8 -8 -8 -8 -7 -7 -7 -7 -7 -7 -7 -7 -7 -7 -7 -7 -7 -7 -7 -7 -7 -7 -7
-6 -5 -5 -5 -5 -5 -5 -5 -5 -5 -5 -5 -5 -5 -5 -6 -6 -6 -6 -6 -7 -7 -7 -7 -8 -8 -8 -8 -8 -8 -8 -8 -8 -8 -9 -9 -9 -9 -9 -9 -9 -8 -8 -8 -8 -8 -8 -8 -8 -8 -8 -8 -8 -8 -7 -7 -7 -7 -7 -7 -7 -6 -6 -7 -7 -7 -6 -6 -6 -6 -6 -6 -7 -7
-6 -6 -6 -6 -5 -5 -5 -5 -5 -5 -5 -5 -5 -5 -5 -6 -6 -6 -6 -6 -7 -7 -7 -7 -7 -8 -8 -8 -8 -7 -7 -7 -8 -8 -9 -9 -9 -9 -9 -9 -9 -8 -8 -8 -8 -8 -8 -8 -8 -8 -8 -8 -8 -7 -7 -7 -7 -7 -7 -7 -6 -6 -6 -6 -6 -6 -6 -6 -6 -6 -6 -6 -6 -6
-6 -6 -6 -6 -6 -5 -5 -5 -5 -5 -5 -5 -5 -5 -5 -5 -6 -6 -6 -6 -6 -7 -7 -7 -7 -8 -8 -7 -7 -7 -7 -7 -8 -8 -9 -9 -9 -9 -9 -9 -9 -8 -8 -8 -8 -8 -8 -8 -8 -8 -8 -7 -7 -7 -7 -7 -7 -7 -7 -6 -6 -6 -6 -6 -6 -6 -6 -6 -6 -6 -6 -6 -6 -6
-6 -6 -6 -6 -6 -6 -6 -5 -5 -5 -5 -5 -5 -5 -5 -5 -5 -6 -6 -6 -6 -7 -7 -7 -7 -7 -7 -7 -7 -7 -7 -7 -7 -8 -9 -9 -9 -8 -8 -9 -9 -8 -8 -8 -8 -8 -8 -8 -8 -8 -7 -7 -7 -7 -7 -7 -7 -6 -6 -6 -6 -6 -6 -6 -6 -6 -6 -6 -6 -6 -6 -6 -6 -6
-6 -6 -6 -6 -6 -6 -6 -6 -5 -5 -5 -5 -5 -5 -5 -5 -5 -6 -6 -6 -6 -7 -7 -7 -7 -7 -7 -7 -7 -7 -7 -7 -7 -8 -9 -9 -8 -8 -8 -9 -9 -9 -9 -8 -8 -8 -8 -8 -8 -7 -7 -7 -7 -7 -7 -6 -6 -6 -6 -6 -6 -6 -6 -6 -6 -6 -5 -5 -6 -6 -6 -6 -5 -6
-6 -6 -6 -6 -6 -6 -6 -6 -6 -5 -5 -5 -5 -5 -5 -5 -5 -6 -6 -6 -6 -6 -7 -7 -7 -7 -7 -7 -7 -7 -7 -7 -8 -8 -9 -8 -8 -8 -8 -9 -9 -9 -9 -8 -8 -8 -8 -8 -8 -7 -7 -7 -7 -7 -7 -6 -6 -6 -6 -6 -6 -6 -6 -6 -6 -6 -5 -5 -5 -5 -5 -5 -5 -5
-6 -6 -6 -6 -6 -6 -6 -6 -6 -6 -6 -5 -5 -5 -5 -5 -5 -6 -6 -6 -6 -6 -7 -7 -7 -7 -7 -7 -7 -7 -7 -7 -8 -8 -9 -8 -8 -8 -8 -9 -9 -9 -9 -9 -9 -8 -8 -8 -7 -7 -7 -7 -7 -7 -7 -7 -6 -7 -7 -6 -6 -6 -6 -6 -6 -6 -6 -6 -5 -5 -5 -5 -5 -5
-5 -6 -6 -6 -6 -6 -6 -6 -6 -6 -6 -6 -5 -5 -5 -5 -5 -5 -6 -6 -6 -6 -7 -7 -7 -7 -7 -7 -7 -7 -7 -7 -7 -8 -8 -8 -8 -8 -8 -9 -9 -9 -9 -9 -9 -8 -8 -8 -7 -7 -7 -7 -7 -7 -7 -7 -7 -7 -7 -6 -6 -6 -6 -6 -6 -6 -6 -6 -6 -5 -5 -5 -5 -5
-5 -5 -6 -6 -6 -6 -6 -6 -6 -6 -6 -6 -6 -5 -5 -5 -5 -5 -6 -6 -6 -6 -7 -7 -7 -7 -7 -7 -7 -7 -7 -7 -8 -8 -8 -8 -8 -8 -8 -8 -8 -8 -9 -9 -9 -8 -8 -8 -7 -7 -7 -7 -7 -7 -7 -7 -7 -7 -7 -6 -6 -6 -6 -6 -6 -6 -6 -6 -5 -5 -5 -5 -5 -5
-5 -5 -5 -6 -6 -6 -6 -6 -6 -6 -6 -6 -6 -5 -5 -5 -5 -5 -6 -6 -6 -7 -7 -7 -7 -7 -7 -7 -7 -7 -7 -7 -8 -8 -8 -8 -8 -8 -8 -9 -9 -9 -9 -9 -9 -8 -8 -8 -8 -7 -7 -7 -7 -7 -7 -7 -7 -7 -7 -6 -6 -6 -6 -6 -6 -6 -6 -6 -5 -5 -5 -5 -5 -5
-5 -5 -5 -5 -6 -6 -6 -6 -6 -6 -6 -6 -6 -5 -5 -5 -5 -5 -6 -6 -6 -6 -7 -7 -7 -7 -7 -7 -8 -7 -7 -7 -7 -8 -8 -8 -8 -8 -8 -8 -9 -9 -8 -8 -8 -8 -8 -8 -8 -8 -7 -8 -8 -7 -7 -7 -7 -7 -7 -7 -6 -6 -6 -6 -6 -6 -6 -6 -6 -5 -5 -5 -5 -5
-5 -5 -5 -6 -6 -6 -6 -6 -6 -6 -6 -6 -6 -5 -5 -5 -5 -5 -6 -6 -6 -6 -7 -7 -7 -7 -7 -7 -8 -8 -7 -7 -8 -8 -8 -8 -8 -8 -8 -8 -8 -9 -8 -8 -8 -8 -8 -8 -8 -8 -7 -8 -8 -7 -7 -7 -7 -7 -7 -7 -6 -6 -6 -6 -6 -6 -6 -6 -6 -5 -5 -5 -5 -5
-5 -5 -5 -6 -6 -6 -6 -6 -5 -5 -6 -6 -6 -6 -5 -5 -5 -5 -6 -6 -6 -6 -7 -7 -7 -7 -7 -7 -8 -8 -8 -8 -8 -8 -8 -8 -8 -8 -8 -8 -8 -9 -9 -8 -8 -8 -8 -8 -8 -8 -7 -7 -7 -7 -7 -7 -7 -7 -7 -7 -7 -6 -6 -6 -6 -6 -6 -6 -6 -6 -5 -5 -5 -5
-5 -5 -5 -5 -6 -6 -6 -6 -5 -5 -5 -5 -5 -5 -5 -5 -5 -5 -6 -6 -6 -6 -7 -7 -7 -7 -7 -7 -7 -7 -8 -8 -8 -8 -8 -8 -8 -8 -8 -8 -8 -8 -8 -8 -8 -8 -8 -8 -8 -8 -8 -8 -8 -8 -7 -7 -7 -7 -7 -7 -7 -6 -6 -6 -6 -6 -6 -6 -6 -6 -6 -6 -5 -6
-5 -5 -5 -5 -6 -6 -6 -6 -6 -5 -5 -5 -5 -5 -5 -5 -5 -5 -5 -6 -6 -6 -7 -7 -7 -7 -7 -7 -7 -7 -8 -8 -8 -8 -8 -8 -8 -8 -8 -8 -8 -8 -8 -8 -8 -8 -8 -8 -8 -8 -8 -8 -8 -8 -8 -7 -7 -7 -7 -7 -6 -6 -6 -6 -6 -6 -6 -6 -6 -6 -6 -6 -6 -6
-5 -5 -5 -5 -5 -6 -6 -6 -6 -5 -5 -5 -5 -5 -5 -5 -5 -5 -5 -6 -6 -6 -6 -7 -7 -7 -7 -7 -7 -7 -8 -8 -8 -8 -8 -8 -8 -8 -8 -8 -8 -8 -8 -8 -8 -8 -8 -8 -8 -8 -8 -8 -8 -8 -8 -7 -7 -7 -7 -7 -6 -6 -6 -6 -6 -6 -6 -6 -6 -6 -6 -6 -6 -6
-5 -5 -5 -5 -5 -5 -6 -6 -6 -6 -5 -5 -5 -5 -5 -5 -5 -5 -6 -5 -6 -6 -6 -7 -7 -7 -7 -7 -7 -7 -7 -8 -8 -8 -9 -9 -8 -8 -8 -8 -8 -8 -8 -8 -8 -8 -8 -8 -8 -8 -8 -8 -8 -8 -8 -7 -7 -7 -7 -6 -6 -6 -6 -6 -6 -6 -6 -6 -6 -6 -6 -6 -6 -6
-5 -5 -5 -5 -5 -5 -5 -6 -6 -6 -5 -5 -5 -5 -5 -5 -5 -6 -6 -6 -6 -6 -6 -7 -7 -7 -7 -7 -7 -7 -7 -7 -8 -8 -8 -8 -8 -8 -8 -8 -8 -8 -8 -8 -8 -7 -8 -7 -7 -7 -7 -7 -7 -7 -7 -7 -7 -7 -6 -6 -6 -6 -6 -6 -6 -6 -6 -6 -6 -6 -6 -6 -6 -6
-5 -5 -5 -5 -5 -5 -5 -5 -5 -5 -6 -6 -6 -6 -5 -5 -5 -6 -6 -6 -6 -6 -6 -6 -7 -7 -7 -7 -7 -7 -7 -7 -8 -8 -8 -8 -8 -8 -8 -8 -8 -8 -8 -8 -8 -7 -7 -7 -7 -7 -7 -7 -7 -7 -7 -7 -7 -7 -6 -6 -6 -6 -6 -6 -6 -6 -6 -6 -6 -6 -6 -6 -6 -6
-5 -5 -5 -5 -5 -5 -5 -5 -5 -5 -6 -6 -6 -6 -6 -6 -6 -6 -6 -5 -6 -6 -6 -6 -7 -7 -7 -7 -7 -7 -7 -7 -7 -7 -8 -8 -8 -8 -8 -8 -8 -8 -8 -8 -8 -8 -8 -7 -7 -7 -7 -7 -7 -7 -7 -7 -7 -6 -6 -6 -6 -6 -6 -6 -6 -6 -6 -6 -6 -6 -6 -6 -6 -6
-5 -5 -5 -5 -5 -5 -5 -5 -5 -5 -6 -6 -6 -6 -6 -6 -6 -6 -5 -5 -5 -5 -6 -6 -6 -6 -7 -7 -7 -7 -7 -7 -7 -7 -8 -8 -8 -8 -8 -8 -8 -8 -8 -8 -8 -8 -8 -8 -7 -7 -7 -7 -7 -7 -7 -7 -7 -6 -6 -6 -6 -6 -7 -6 -6 -6 -6 -6 -6 -6 -6 -6 -6 -6
-6 -5 -5 -5 -5 -5 -5 -5 -5 -6 -6 -6 -6 -6 -6 -6 -6 -6 -5 -5 -5 -5 -6 -6 -6 -6 -6 -7 -7 -7 -7 -7 -7 -7 -8 -8 -8 -8 -8 -8 -8 -8 -8 -8 -8 -8 -8 -8 -8 -8 -7 -7 -7 -7 -7 -7 -7 -6 -6 -6 -7 -7 -7 -7 -7 -6 -6 -6 -6 -6 -6 -6 -6 -6
-6 -6 -6 -6 -6 -5 -5 -5 -5 -6 -6 -6 -6 -6 -6 -6 -6 -6 -6 -5 -5 -6 -6 -6 -6 -6 -6 -7 -7 -7 -7 -7 -7 -8 -8 -8 -8 -8 -8 -8 -8 -8 -8 -8 -8 -9 -9 -9 -8 -8 -8 -7 -7 -6 -6 -7 -7 -7 -7 -7 -7 -7 -6 -7 -7 -7 -6 -6 -6 -6 -6 -6 -6 -6
-6 -6 -6 -6 -6 -6 -5 -5 -5 -6 -6 -6 -6 -6 -6 -6 -6 -6 -6 -6 -6 -6 -6 -6 -6 -6 -6 -7 -7 -7 -7 -7 -7 -8 -8 -8 -8 -8 -8 -8 -8 -8 -8 -8 -8 -8 -8 -8 -8 -8 -8 -8 -7 -7 -7 -7 -7 -7 -7 -7 -7 -7 -7 -7 -7 -7 -7 -7 -6 -6 -6 -6 -6 -6
-6 -6 -6 -6 -6 -6 -6 -6 -6 -6 -6 -6 -6 -6 -6 -6 -6 -6 -6 -6 -6 -6 -6 -6 -6 -6 -6 -6 -7 -7 -7 -7 -8 -8 -8 -8 -8 -8 -8 -9 -8 -8 -8 -8 -8 -8 -8 -8 -8 -8 -8 -8 -7 -7 -7 -7 -7 -7 -7 -7 -7 -7 -7 -7 -7 -7 -7 -7 -7 -6 -6 -6 -6 -6
-6 -6 -6 -6 -6 -6 -6 -6 -6 -6 -6 -6 -6 -6 -6 -6 -6 -6 -6 -6 -6 -6 -6 -6 -6 -6 -6 -7 -7 -7 -7 -8 -8 -8 -8 -8 -8 -9 -9 -9 -8 -8 -8 -8 -8 -8 -8 -8 -8 -8 -8 -8 -8 -7 -7 -7 -7 -7 -7 -7 -7 -7 -7 -7 -7 -7 -7 -7 -7 -6 -6 -6 -6 -6
-6 -6 -6 -6 -6 -6 -6 -6 -6 -6 -6 -6 -7 -7 -6 -6 -6 -6 -6 -6 -6 -6 -6 -6 -6 -6 -6 -7 -7 -7 -8 -8 -8 -8 -8 -8 -8 -8 -9 -8 -8 -8 -8 -8 -8 -8 -8 -8 -8 -8 -7 -8 -8 -7 -7 -7 -7 -7 -7 -7 -7 -7 -7 -7 -7 -7 -7 -7 -6 -6 -6 -6 -6 -6
-6 -6 -6 -6 -6 -6 -6 -6 -6 -6 -6 -7 -7 -7 -7 -7 -7 -7 -7 -7 -7 -7 -7 -7 -7 -7 -7 -7 -7 -8 -8 -8 -8 -8 -8 -8 -8 -9 -9 -8 -8 -8 -8 -8 -8 -7 -7 -8 -8 -7 -8 -8 -8 -7 -7 -7 -7 -7 -7 -7 -7 -7 -7 -7 -7 -7 -7 -6 -6 -6 -6 -6 -6 -6
-6 -6 -6 -6 -6 -6 -6 -6 -6 -6 -6 -7 -7 -7 -7 -7 -7 -7 -7 -7 -7 -7 -7 -7 -7 -7 -7 -7 -7 -8 -8 -8 -8 -8 -8 -8 -9 -9 -8 -8 -8 -8 -8 -8 -8 -7 -7 -8 -8 -8 -8 -8 -8 -7 -7 -7 -7 -7 -7 -7 -7 -7 -7 -7 -7 -7 -7 -6 -6 -6 -6 -6 -5 -5
-6 -6 -6 -6 -6 -6 -6 -6 -6 -7 -7 -7 -7 -7 -7 -7 -7 -7 -7 -7 -7 -7 -7 -7 -7 -7 -8 -8 -8 -8 -8 -8 -8 -8 -8 -8 -8 -8 -8 -8 -8 -8 -8 -8 -8 -8 -8 -8 -8 -8 -8 -8 -7 -7 -7 -7 -7 -7 -7 -7 -7 -7 -7 -7 -7 -7 -7 -6 -6 -6 -5 -6 -6 -5
-5 -6 -6 -6 -6 -6 -6 -6 -6 -7 -7 -7 -7 -7 -7 -7 -7 -7 -7 -7 -7 -7 -7 -8 -8 -8 -8 -8 -8 -8 -8 -8 -8 -8 -8 -8 -8 -8 -8 -8 -8 -8 -8 -8 -8 -8 -8 -8 -8 -8 -8 -8 -7 -7 -7 -7 -7 -7 -7 -7 -7 -7 -7 -7 -6 -7 -7 -7 -6 -6 -6 -6 -6 -6
-5 -6 -6 -6 -6 -6 -6 -6 -6 -6 -7 -7 -7 -7 -7 -7 -8 -8 -8 -8 -7 -7 -8 -8 -8 -8 -8 -8 -8 -8 -8 -8 -8 -8 -8 -8 -8 -8 -8 -8 -8 -8 -8 -8 -8 -8 -8 -8 -8 -8 -7 -7 -7 -7 -7 -7 -7 -7 -7 -7 -7 -7 -7 -6 -6 -6 -6 -6 -6 -6 -6 -6 -6 -6
-6 -6 -6 -6 -6 -6 -6 -6 -6 -6 -6 -7 -7 -7 -7 -8 -8 -8 -7 -7 -8 -8 -8 -8 -8 -8 -8 -8 -8 -8 -8 -8 -8 -8 -8 -8 -8 -8 -8 -8 -8 -8 -8 -8 -8 -8 -8 -7 -7 -7 -7 -7 -7 -7 -7 -7 -7 -7 -7 -7 -7 -7 -7 -6 -6 -6 -6 -6 -6 -6 -6 -6 -6 -6
-6 -6 -6 -6 -6 -6 -6 -6 -6 -6 -6 -7 -7 -7 -8 -7 -7 -7 -8 -8 -8 -8 -8 -8 -8 -8 -8 -8 -8 -8 -8 -8 -8 -8 -8 -8 -8 -8 -8 -8 -8 -8 -8 -8 -8 -8 -7 -7 -7 -7 -7 -7 -7 -7 -7 -7 -7 -7 -7 -7 -7 -7 -7 -6 -6 -6 -6 -6 -6 -6 -6 -6 -6 -6
-6 -6 -6 -6 -6 -6 -6 -6 -6 -6 -6 -7 -7 -7 -7 -6 -7 -7 -8 -8 -8 -8 -8 -8 -8 -8 -8 -8 -8 -8 -8 -8 -8 -8 -8 -8 -8 -8 -8 -7 -7 -7 -7 -7 -7 -7 -7 -7 -7 -7 -7 -7 -7 -7 -7 -7 -7 -7 -7 -7 -7 -7 -7 -7 -7 -6 -6 -6 -6 -6 -6 -6 -6 -6
-7 -7 -7 -6 -6 -6 -6 -6 -6 -7 -7 -6 -6 -6 -6 -6 -6 -7 -7 -8 -8 -8 -8 -8 -8 -8 -8 -8 -8 -8 -8 -8 -8 -8 -8 -8 -8 -7 -7 -7 -7 -7 -7 -7 -7 -7 -7 -7 -7 -7 -7 -7 -7 -7 -6 -6 -7 -7 -7 -7 -7 -7 -7 -7 -7 -7 -7 -7 -6 -6 -6 -6 -6 -6
-7 -7 -7 -7 -7 -7 -7 -7 -7 -7 -6 -6 -6 -6 -6 -6 -6 -7 -8 -8 -8 -8 -8 -8 -8 -8 -8 -8 -8 -8 -8 -8 -8 -8 -8 -8 -8 -7 -7 -7 -7 -7 -7 -7 -7 -7 -7 -7 -7 -7 -7 -7 -7 -7 -7 -7 -7 -7 -7 -7 -7 -7 -7 -7 -7 -7 -7 -7 -7 -7 -7 -7 -7 -7
-7 -7 -7 -7 -7 -7 -7 -7 -6 -6 -6 -6 -6 -6 -6 -7 -7 -7 -8 -8 -8 -8 -8 -8 -8 -8 -8 -8 -8 -8 -8 -8 -8 -8 -8 -8 -8 -7 -7 -7 -7 -7 -7 -7 -7 -7 -7 -7 -7 -7 -7 -7 -7 -7 -7 -7 -7 -7 -7 -7 -7 -7 -8 -8 -8 -8 -8 -8 -7 -7 -7 -7 -7 -7
-7 -7 -7 -7 -7 -6 -6 -6 -6 -6 -6 -6 -6 -6 -7 -7 -8 -8 -8 -8 -8 -8 -8 -8 -8 -8 -8 -8 -8 -8 -8 -8 -8 -8 -8 -8 -8 -7 -7 -7 -7 -7 -7 -7 -7 -7 -7 -7 -7 -7 -7 -7 -7 -7 -7 -7 -7 -7 -7 -7 -7 -7 -7 -8 -8 -8 -8 -8 -8 -8 -8 -8 -8 -8
-7 -7 -7 -7 -7 -7 -6 -6 -6 -6 -6 -6 -6 -7 -7 -8 -8 -8 -8 -8 -8 -8 -8 -8 -8 -8 -8 -8 -8 -8 -8 -8 -8 -8 -8 -8 -8 -7 -7 -7 -7 -7 -7 -7 -7 -7 -7 -7 -7 -7 -7 -7 -7 -7 -7 -7 -7 -7 -7 -7 -7 -7 -7 -7 -8 -8 -8 -8 -8 -8 -8 -8 -8 -8
-7 -7 -7 -7 -7 -7 -7 -6 -6 -6 -6 -6 -7 -7 -8 -8 -8 -8 -8 -8 -8 -8 -8 -8 -8 -8 -8 -8 -8 -8 -8 -8 -8 -8 -8 -8 -8 -7 -7 -7 -7 -7 -7 -7 -7 -7 -7 -7 -7 -7 -7 -7 -7 -7 -7 -7 -7 -7 -7 -7 -7 -7 -7 -8 -8 -8 -8 -8 -8 -8 -8 -8 -8 -8
-7 -7 -7 -7 -8 -7 -7 -7 -7 -7 -7 -7 -7 -7 -7 -8 -8 -8 -8 -8 -8 -8 -8 -8 -8 -8 -8 -8 -8 -8 -8 -8 -7 -7 -7 -7 -7 -7 -7 -7 -7 -7 -7 -7 -7 -7 -7 -7 -7 -7 -7 -7 -7 -7 -7 -7 -8 -8 -8 -8 -8 -8 -8 -8 -8 -8 -8 -8 -9 -9 -9 -9 -9 -9
-7 -7 -8 -8 -8 -8 -7 -7 -7 -7 -7 -7 -7 -7 -7 -7 -8 -8 -8 -8 -8 -8 -8 -8 -8 -8 -8 -8 -8 -8 -7 -7 -7 -7 -7 -7 -7 -7 -7 -7 -7 -7 -7 -7 -7 -7 -8 -8 -8 -8 -8 -8 -8 -8 -8 -8 -8 -8 -8 -8 -8 -8 -8 -8 -8 -8 -9 -9 -9 -9 -9 -9 -9 -10
Height
5966 5965 5965 5964 5964 5964 5964 5965 5966 5966 5967 5967 5968 5968 5969 5969 5969 5969 5969 5969 5969 5969 5969 5968 5968 5968 5968 5968 5968 5967 5967 5966 5966 5965 5964 5963 5962 5961 5960 5959 5959 5958 5956 5955 5954 5953 5951 5950 5948 5946 5944 5942 5940 5938 5936 5933 5931 5929 5927 5925 5922 5919 5917 5914 5912 5909 5906 5904 5901 5899 5896 5893 5890 5888
5967 5966 5966 5965 5965 5964 5965 5965 5966 5967 5967 5968 5968 5969 5969 5969 5969 5969 5970 5970 5969 5969 5969 5969 5968 5968 5969 5968 5968 5968 5967 5967 5966 5966 5965 5963 5962 5961 5961 5960 5959 5958 5957 5955 5954 5952 5951 5950 5948 5946 5944 5942 5940 5937 5935 5933 5931 5929 5927 5925 5922 5920 5917 5915 5912 5909 5906 5904 5901 5899 5896 5893 5890 5887
5968 5967 5966 5966 5965 5965 5965 5966 5966 5967 5968 5968 5969 5969 5969 5970 5970 5970 5970 5970 5970 5969 5969 5969 5969 5969 5969 5969 5969 5968 5968 5967 5967 5966 5964 5963 5962 5962 5961 5960 5959 5958 5957 5955 5954 5953 5951 5950 5948 5946 5944 5942 5940 5938 5935 5933 5931 5929 5927 5925 5923 5920 5918 5915 5912 5910 5907 5904 5902 5899 5896 5893 5890 5887
5968 5968 5967 5967 5966 5966 5966 5966 5966 5967 5968 5968 5969 5969 5970 5970 5970 5970 5970 5970 5970 5970 5969 5969 5969 5969 5969 5969 5969 5968 5968 5967 5966 5965 5964 5963 5963 5962 5962 5961 5959 5958 5957 5956 5954 5953 5952 5950 5948 5946 5944 5942 5940 5938 5935 5933 5932 5930 5927 5925 5923 5921 5918 5916 5913 5910 5907 5905 5902 5899 5896 5894 5891 5888
5968 5968 5968 5967 5967 5966 5966 5966 5966 5966 5967 5968 5969 5969 5970 5970 5970 5970 5970 5970 5970 5970 5970 5969 5969 5969 5969 5969 5969 5968 5967 5967 5966 5965 5965 5964 5963 5962 5962 5961 5960 5959 5957 5956 5954 5953 5951 5950 5948 5947 5945 5943 5940 5938 5936 5934 5932 5930 5927 5925 5923 5921 5919 5916 5914 5911 5908 5905 5902 5899 5897 5894 5891 5888
5968 5968 5968 5968 5967 5967 5967 5966 5967 5967 5967 5968 5968 5969 5970 5970 5970 5970 5970 5970 5970 5970 5970 5969 5969 5969 5969 5969 5968 5967 5967 5967 5967 5966 5965 5964 5963 5962 5962 5961 5959 5958 5957 5956 5954 5952 5951 5950 5949 5947 5945 5943 5941 5939 5937 5935 5932 5930 5928 5926 5923 5921 5919 5916 5914 5911 5909 5906 5903 5900 5897 5894 5891 5888
5968 5968 5968 5968 5967 5967 5967 5967 5967 5967 5967 5967 5968 5969 5969 5969 5970 5970 5970 5970 5969 5969 5969 5969 5969 5969 5968 5968 5968 5967 5967 5967 5967 5966 5965 5964 5963 5963 5961 5960 5959 5958 5957 5955 5953 5952 5951 5950 5949 5947 5945 5943 5942 5940 5938 5935 5933 5930 5928 5926 5923 5921 5918 5916 5914 5911 5909 5906 5903 5900 5897 5894 5891 5888
5968 5968 5968 5968 5967 5967 5967 5967 5967 5967 5967 5967 5968 5968 5969 5969 5969 5969 5969 5969 5969 5969 5969 5969 5968 5968 5968 5968 5968 5967 5967 5967 5967 5966 5965 5964 5963 5962 5961 5960 5958 5957 5956 5955 5953 5951 5950 5950 5948 5946 5945 5943 5942 5940 5938 5935 5933 5931 5928 5926 5924 5921 5918 5916 5913 5911 5908 5906 5903 5900 5898 5895 5892 5889
5967 5967 5967 5967 5967 5967 5967 5966 5966 5966 5967 5967 5968 5968 5968 5968 5969 5969 5969 5969 5969 5968 5968 5968 5968 5968 5967 5967 5967 5967 5966 5967 5967 5966 5965 5963 5963 5962 5961 5960 5958 5957 5956 5954 5952 5951 5950 5948 5947 5946 5944 5943 5941 5939 5937 5935 5933 5931 5929 5926 5924 5921 5919 5916 5913 5910 5908 5905 5903 5900 5897 5895 5892 5889
5967 5967 5966 5966 5966 5966 5966 5966 5966 5966 5966 5967 5967 5968 5968 5968 5968 5968 5968 5968 5968 5968 5967 5967 5967 5967 5967 5966 5966 5966 5966 5966 5966 5965 5964 5963 5962 5961 5961 5959 5958 5956 5955 5953 5951 5950 5949 5947 5946 5944 5943 5941 5940 5938 5936 5934 5932 5930 5928 5926 5924 5921 5919 5916 5913 5910 5907 5905 5902 5899 5896 5894 5891 5889
5965 5966 5966 5966 5966 5966 5966 5965 5965 5965 5965 5966 5966 5967 5967 5967 5967 5967 5967 5967 5967 5967 5967 5966 5966 5966 5965 5965 5965 5965 5965 5965 5965 5964 5963 5962 5961 5960 5960 5959 5957 5955 5954 5953 5951 5949 5948 5946 5944 5943 5941 5940 5939 5937 5935 5934 5932 5929 5927 5925 5923 5921 5918 5915 5912 5909 5906 5903 5901 5898 5895 5893 5891 5888
5964 5964 5964 5964 5964 5964 5964 5964 5964 5964 5964 5965 5965 5966 5966 5966 5966 5966 5967 5967 5966 5966 5965 5965 5965 5964 5964 5964 5964 5964 5964 5964 5964 5963 5962 5961 5960 5959 5958 5958 5957 5954 5953 5952 5950 5947 5946 5944 5942 5941 5940 5939 5938 5936 5935 5933 5931 5928 5926 5924 5922 5920 5917 5914 5911 5909 5906 5903 5900 5897 5894 5892 5890 5888
5963 5963 5963 5963 5963 5963 5963 5963 5963 5963 5963 5963 5964 5964 5965 5965 5965 5965 5965 5966 5965 5965 5964 5964 5963 5963 5963 5963 5963 5963 5963 5963 5962 5962 5961 5960 5959 5958 5956 5956 5956 5954 5951 5950 5948 5946 5944 5942 5941 5939 5939 5938 5936 5935 5934 5932 5930 5928 5926 5924 5921 5918 5915 5913 5910 5908 5905 5902 5900 5897 5894 5891 5889 5886
5961 5961 5962 5962 5962 5962 5962 5962 5961 5961 5962 5962 5962 5963 5963 5963 5963 5963 5964 5964 5964 5964 5963 5962 5962 5962 5962 5962 5961 5961 5961 5961 5961 5960 5959 5959 5958 5956 5955 5954 5954 5953 5951 5949 5947 5945 5942 5941 5940 5938 5937 5936 5934 5933 5932 5931 5929 5927 5925 5923 5920 5917 5914 5912 5910 5907 5905 5902 5899 5896 5893 5890 5888 5885
5959 5960 5960 5960 5961 5961 5961 5960 5960 5960 5960 5960 5960 5961 5961 5961 5962 5962 5962 5962 5962 5962 5962 5961 5961 5961 5960 5960 5959 5958 5959 5959 5959 5958 5958 5957 5956 5954 5953 5952 5952 5952 5950 5948 5946 5944 5942 5940 5939 5937 5936 5934 5932 5931 5931 5929 5928 5926 5924 5921 5918 5915 5913 5911 5910 5907 5904 5901 5898 5895 5892 5889 5887 5884
5958 5958 5959 5959 5959 5959 5959 5959 5959 5958 5958 5958 5958 5958 5959 5959 5960 5960 5960 5960 5960 5960 5960 5959 5959 5959 5959 5958 5956 5956 5956 5956 5956 5956 5956 5955 5954 5953 5952 5951 5950 5950 5949 5947 5945 5944 5942 5940 5938 5936 5935 5933 5931 5930 5929 5928 5926 5925 5922 5920 5917 5915 5913 5911 5909 5906 5903 5900 5897 5894 5891 5888 5886 5883
5956 5956 5957 5957 5957 5957 5957 5957 5957 5957 5956 5956 5956 5956 5956 5957 5957 5957 5957 5957 5958 5958 5958 5957 5956 5956 5956 5955 5954 5954 5954 5953 5953 5953 5953 5953 5952 5951 5950 5950 5949 5949 5948 5946 5944 5943 5941 5939 5937 5935 5934 5931 5929 5928 5927 5925 5924 5922 5920 5918 5916 5914 5912 5910 5908 5906 5903 5900 5896 5893 5890 5887 5884 5882
5953 5954 5955 5955 5955 5955 5955 5955 5955 5955 5955 5955 5954 5954 5954 5954 5954 5954 5954 5954 5955 5955 5955 5955 5954 5954 5954 5953 5951 5951 5951 5951 5950 5950 5950 5950 5950 5950 5949 5948 5948 5947 5946 5944 5942 5941 5940 5938 5935 5933 5932 5930 5928 5926 5925 5924 5922 5920 5918 5916 5915 5913 5911 5909 5907 5905 5902 5899 5895 5892 5889 5886 5883 5881
5950 5951 5952 5953 5953 5953 5954 5953 5953 5953 5953 5953 5953 5952 5952 5952 5952 5952 5951 5951 5951 5952 5952 5952 5951 5951 5951 5950 5949 5949 5949 5948 5948 5948 5948 5948 5948 5948 5947 5947 5946 5945 5944 5942 5940 5939 5938 5936 5933 5931 5930 5928 5925 5924 5923 5922 5920 5918 5915 5914 5913 5911 5909 5907 5905 5903 5900 5897 5894 5891 5887 5884 5882 5879
5947 5948 5949 5950 5950 5951 5951 5951 5951 5951 5951 5950 5950 5950 5950 5950 5949 5949 5948 5948 5948 5948 5949 5949 5948 5948 5948 5947 5946 5946 5946 5946 5945 5945 5946 5946 5946 5946 5945 5945 5944 5943 5941 5940 5938 5937 5936 5934 5932 5929 5928 5926 5924 5922 5921 5919 5918 5915 5913 5911 5910 5909 5907 5905 5903 5900 5898 5896 5893 5889 5886 5883 5880 5878
5944 5945 5946 5946 5947 5948 5948 5948 5948 5949 5949 5949 5948 5948 5947 5947 5947 5946 5945 5944 5944 5944 5945 5945 5945 5945 5944 5944 5944 5944 5944 5944 5944 5944 5944 5944 5944 5943 5943 5942 5942 5941 5939 5938 5936 5935 5934 5932 5930 5928 5926 5924 5922 5920 5919 5917 5915 5913 5910 5909 5908 5907 5905 5903 5900 5898 5896 5894 5891 5888 5885 5882 5879 5876
5941 5941 5942 5943 5944 5944 5945 5945 5945 5946 5946 5946 5946 5945 5945 5945 5944 5943 5942 5941 5941 5940 5941 5941 5941 5941 5941 5941 5941 5941 5942 5942 5942 5942 5943 5942 5942 5941 5940 5940 5939 5938 5937 5936 5934 5933 5932 5930 5927 5926 5924 5922 5920 5919 5917 5915 5912 5910 5908 5906 5905 5904 5902 5900 5898 5896 5893 5891 5888 5886 5883 5881 5879 5875
5938 5938 5938 5939 5940 5941 5941 5941 5942 5943 5943 5943 5943 5942 5943 5942 5940 5939 5938 5938 5937 5937 5937 5937 5937 5937 5937 5938 5938 5939 5940 5941 5941 5941 5941 5941 5940 5939 5937 5937 5936 5935 5934 5933 5932 5931 5930 5927 5925 5923 5921 5919 5918 5916 5915 5913 5911 5909 5907 5905 5903 5901 5899 5897 5895 5892 5890 5887 5885 5883 5881 5879 5877 5874
5934 5934 5934 5935 5936 5937 5937 5938 5939 5940 5940 5940 5940 5940 5940 5939 5936 5935 5935 5935 5934 5934 5933 5933 5933 5933 5934 5935 5936 5937 5938 5939 5939 5939 5939 5938 5937 5935 5934 5933 5932 5932 5931 5930 5929 5928 5927 5924 5922 5921 5918 5916 5915 5914 5912 5911 5909 5907 5905 5903 5901 5899 5896 5894 5891 5889 5887 5885 5882 5880 5878 5876 5874 5872
5931 5931 5931 5931 5931 5932 5933 5934 5935 5936 5936 5937 5937 5937 5936 5934 5933 5932 5933 5932 5931 5930 5930 5930 5930 5930 5931 5932 5933 5935 5936 5936 5936 5936 5936 5935 5933 5931 5930 5930 5929 5929 5928 5927 5926 5924 5922 5920 5919 5918 5915 5913 5912 5911 5910 5908 5906 5904 5902 5901 5899 5897 5895 5892 5889 5886 5885 5883 5880 5877 5875 5873 5871 5869
5927 5927 5926 5926 5927 5927 5929 5930 5931 5932 5932 5933 5933 5933 5932 5931 5930 5930 5930 5929 5928 5927 5927 5926 5927 5927 5928 5929 5930 5932 5933 5933 5933 5933 5932 5930 5929 5928 5927 5927 5926 5925 5924 5923 5922 5920 5918 5917 5915 5913 5912 5911 5909 5908 5907 5905 5903 5901 5899 5898 5896 5894 5893 5891 5887 5885 5883 5881 5878 5876 5873 5871 5869 5866
5923 5923 5922 5922 5923 5923 5924 5925 5926 5927 5928 5929 5929 5929 5928 5927 5927 5927 5926 5925 5925 5924 5924 5924 5924 5924 5925 5927 5928 5929 5930 5930 5930 5928 5927 5926 5925 5925 5924 5922 5921 5920 5920 5919 5918 5917 5915 5913 5911 5909 5908 5908 5907 5905 5903 5901 5899 5897 5896 5894 5892 5891 5890 5888 5885 5882 5880 5879 5876 5873 5870 5868 5866 5863
5919 5919 5919 5919 5919 5919 5920 5920 5922 5923 5924 5925 5925 5924 5923 5923 5924 5923 5923 5921 5921 5921 5921 5922 5922 5923 5924 5924 5925 5925 5925 5925 5925 5924 5923 5922 5922 5921 5920 5918 5916 5916 5915 5914 5913 5912 5910 5909 5907 5905 5904 5904 5903 5902 5900 5898 5896 5894 5892 5890 5888 5887 5886 5884 5882 5879 5876 5875 5873 5870 5867 5865 5862 5860
5914 5914 5915 5915 5915 5915 5916 5916 5918 5919 5920 5920 5920 5920 5919 5920 5920 5919 5918 5918 5918 5918 5919 5919 5920 5921 5921 5921 5921 5921 5920 5920 5920 5919 5919 5919 5919 5917 5915 5912 5911 5911 5910 5908 5905 5904 5903 5903 5901 5900 5900 5900 5899 5898 5896 5894 5893 5891 5889 5886 5884 5883 5881 5880 5878 5875 5873 5871 5869 5867 5864 5862 5859 5857
5910 5911 5911 5911 5911 5911 5911 5912 5914 5915 5915 5916 5916 5915 5915 5915 5915 5915 5914 5914 5915 5916 5916 5917 5918 5918 5918 5919 5918 5917 5916 5916 5916 5916 5916 5915 5914 5912 5910 5907 5906 5907 5905 5902 5900 5898 5897 5897 5895 5895 5895 5895 5894 5893 5892 5890 5889 5887 5885 5883 5881 5879 5877 5875 5874 5871 5869 5866 5865 5863 5861 5858 5855 5853
5906 5906 5906 5906 5907 5907 5908 5909 5910 5910 5910 5911 5911 5910 5910 5910 5910 5910 5910 5911 5912 5913 5914 5914 5914 5915 5915 5916 5915 5915 5914 5914 5914 5913 5912 5912 5910 5908 5906 5904 5902 5902 5901 5900 5898 5896 5894 5893 5891 5891 5891 5890 5889 5888 5887 5886 5884 5883 5881 5879 5876 5874 5872 5870 5868 5867 5864 5862 5860 5858 5856 5853 5851 5849
5901 5901 5902 5903 5904 5904 5905 5905 5905 5906 5906 5905 5905 5905 5904 5904 5905 5905 5907 5908 5909 5910 5910 5910 5910 5911 5912 5912 5911 5911 5911 5911 5910 5910 5909 5908 5907 5905 5903 5901 5899 5898 5897 5896 5895 5893 5891 5889 5888 5887 5886 5885 5885 5884 5882 5881 5880 5878 5876 5874 5871 5869 5867 5865 5863 5861 5859 5857 5854 5852 5850 5848 5846 5845
5896 5898 5898 5899 5900 5900 5901 5901 5901 5901 5901 5900 5900 5899 5898 5898 5899 5901 5903 5905 5905 5905 5906 5906 5906 5906 5907 5907 5907 5907 5907 5907 5906 5906 5905 5904 5903 5901 5900 5898 5896 5893 5892 5891 5890 5888 5886 5885 5884 5882 5881 5880 5880 5879 5878 5876 5875 5873 5871 5869 5866 5864 5862 5860 5857 5855 5853 5851 5849 5847 5845 5844 5842 5840
5893 5894 5895 5895 5896 5896 5897 5897 5897 5897 5896 5895 5894 5892 5891 5891 5893 5895 5897 5899 5900 5901 5902 5902 5902 5903 5904 5904 5903 5903 5903 5903 5902 5901 5900 5900 5899 5897 5896 5894 5892 5889 5887 5886 5885 5884 5882 5881 5880 5879 5877 5876 5876 5875 5873 5872 5870 5869 5867 5864 5862 5859 5856 5854 5852 5850 5848 5846 5844 5842 5840 5839 5837 5835
5889 5890 5891 5892 5892 5892 5893 5893 5892 5891 5890 5889 5888 5886 5885 5885 5886 5889 5893 5897 5898 5899 5898 5898 5900 5901 5902 5901 5900 5900 5899 5898 5897 5896 5896 5895 5894 5893 5891 5890 5888 5886 5884 5883 5882 5881 5879 5877 5876 5875 5874 5872 5871 5870 5868 5867 5866 5864 5862 5859 5856 5854 5851 5848 5846 5844 5843 5841 5840 5837 5835 5834 5832 5831
5885 5886 5887 5888 5888 5889 5889 5888 5887 5885 5884 5883 5881 5880 5878 5878 5881 5887 5893 5896 5896 5894 5893 5894 5896 5898 5898 5896 5896 5895 5894 5893 5892 5891 5891 5890 5889 5887 5886 5885 5883 5881 5880 5879 5878 5877 5875 5873 5872 5871 5870 5868 5867 5865 5863 5862 5860 5858 5856 5853 5851 5848 5846 5843 5841 5839 5837 5836 5834 5832 5830 5829 5827 5826
5882 5883 5884 5884 5884 5884 5883 5882 5880 5879 5877 5875 5873 5873 5873 5874 5879 5885 5890 5890 5889 5888 5888 5889 5891 5892 5891 5889 5889 5889 5889 5888 5887 5886 5886 5885 5883 5882 5881 5879 5878 5877 5876 5875 5874 5872 5871 5869 5868 5867 5865 5863 5862 5860 5858 5856 5854 5852 5850 5848 5845 5843 5841 5838 5836 5834 5832 5830 5829 5827 5825 5823 5821 5820
5878 5879 5879 5879 5879 5878 5877 5876 5874 5872 5870 5868 5869 5874 5877 5876 5876 5880 5884 5884 5882 5882 5882 5883 5885 5886 5884 5881 5881 5882 5882 5882 5882 5882 5881 5879 5878 5877 5875 5874 5873 5873 5871 5870 5869 5868 5866 5865 5864 5862 5860 5859 5857 5855 5854 5851 5849 5847 5845 5843 5840 5838 5836 5833 5831 5829 5827 5825 5823 5821 5819 5817 5815 5813
5873 5874 5875 5875 5875 5873 5871 5870 5867 5865 5865 5868 5871 5875 5877 5874 5871 5873 5878 5878 5877 5876 5877 5877 5878 5879 5878 5877 5876 5877 5877 5877 5877 5876 5875 5874 5873 5871 5870 5869 5868 5868 5866 5865 5864 5863 5862 5860 5859 5857 5856 5854 5852 5850 5848 5846 5844 5842 5840 5838 5835 5833 5830 5828 5826 5824 5822 5819 5817 5815 5813 5811 5809 5807
5867 5868 5870 5871 5870 5866 5863 5862 5862 5864 5868 5871 5870 5870 5871 5870 5868 5869 5871 5873 5873 5873 5873 5873 5872 5872 5872 5872 5872 5872 5872 5872 5871 5870 5869 5868 5867 5866 5865 5864 5863 5862 5861 5860 5859 5858 5856 5855 5853 5852 5850 5848 5846 5844 5842 5840 5838 5836 5834 5832 5830 5828 5825 5822 5820 5818 5815 5813 5810 5808 5806 5804 5802 5800
5861 5865 5867 5867 5864 5860 5858 5860 5864 5866 5867 5866 5863 5862 5864 5865 5866 5866 5866 5867 5868 5869 5869 5869 5869 5868 5867 5867 5867 5867 5867 5866 5866 5865 5864 5863 5863 5861 5860 5859 5858 5857 5856 5854 5853 5852 5850 5848 5847 5845 5843 5841 5839 5838 5836 5834 5832 5830 5827 5825 5823 5821 5819 5816 5814 5812 5809 5807 5804 5802 5800 5798 5795 5793
5861 5865 5867 5864 5860 5856 5857 5862 5865 5863 5860 5858 5857 5856 5857 5859 5862 5863 5864 5864 5864 5865 5866 5865 5864 5863 5862 5861 5861 5861 5861 5861 5860 5860 5859 5858 5858 5856 5855 5854 5853 5851 5850 5848 5847 5846 5844 5842 5840 5838 5836 5834 5832 5830 5829 5826 5824 5822 5820 5818 5815 5813 5811 5809 5807 5805 5803 5801 5798 5796 5794 5791 5789 5786
5859 5861 5862 5861 5858 5855 5854 5857 5859 5857 5855 5855 5855 5854 5854 5855 5857 5858 5860 5862 5862 5862 5861 5860 5858 5856 5856 5856 5856 5856 5856 5855 5854 5854 5853 5852 5851 5851 5849 5848 5846 5845 5844 5842 5841 5839 5837 5836 5833 5831 5829 5827 5825 5823 5821 5819 5817 5815 5812 5810 5808 5805 5803 5801 5799 5798 5796 5794 5792 5789 5786 5784 5781 5778
5852 5854 5856 5855 5854 5853 5851 5851 5852 5851 5851 5852 5852 5852 5852 5853 5852 5853 5854 5856 5856 5856 5856 5854 5851 5850 5850 5850 5850 5850 5849 5849 5847 5846 5846 5845 5844 5843 5842 5841 5839 5838 5837 5835 5834 5832 5830 5828 5826 5824 5821 5819 5817 5815 5813 5811 5809 5807 5804 5802 5800 5798 5795 5793 5791 5790 5788 5786 5783 5781 5778 5775 5772 5769
5845 5848 5850 5850 5849 5849 5848 5848 5848 5848 5848 5848 5848 5848 5849 5849 5849 5848 5847 5847 5847 5848 5848 5847 5845 5843 5842 5842 5842 5842 5842 5841 5840 5839 5838 5838 5837 5836 5835 5833 5832 5830 5829 5828 5826 5824 5822 5820 5818 5816 5814 5811 5809 5807 5805 5803 5801 5799 5796 5794 5792 5790 5787 5785 5783 5781 5779 5776 5774 5772 5769 5766 5763 5761
Wind_Speed
7 7 7 7 6 6 7 8 9 11 11 12 13 14 13 13 12 12 11 11 10 10 10 11 10 9 8 8 7 6 5 7 10 13 15 16 17 17 14 13 13 13 13 14 15 17 18 19 20 22 23 25 26 28 29 30 31 32 33 33 34 34 34 35 35 35 36 35 35 34 34 34 34 33
7 7 7 7 7 6 6 7 8 10 11 11 12 12 12 12 11 11 10 9 9 9 9 9 9 8 7 6 5 3 3 6 9 12 15 16 17 16 12 10 12 13 13 14 15 17 19 20 22 24 25 27 28 30 31 32 33 33 33 34 34 34 35 35 36 36 37 37 37 36 36 36 36 36
6 6 6 6 7 7 6 6 7 8 10 10 11 11 11 11 10 10 9 8 7 7 7 7 7 7 6 5 3 1 1 5 8 11 15 14 13 14 11 8 11 13 14 15 16 18 19 21 23 25 27 28 29 30 31 32 33 33 33 33 34 34 35 35 36 37 37 37 37 37 37 37 37 37
6 5 5 5 5 6 6 6 6 7 8 9 10 10 10 10 10 9 8 8 7 6 6 6 6 6 5 4 3 1 1 4 8 12 13 11 9 12 11 8 10 13 14 15 16 18 19 21 23 25 27 28 29 30 32 32 33 33 33 33 33 33 34 35 35 36 37 37 38 38 37 37 37 38
6 5 4 4 4 4 5 5 5 6 7 7 9 9 10 9 9 8 8 7 7 6 5 4 4 5 4 3 2 2 3 5 8 10 9 7 8 11 10 7 9 12 13 14 16 17 19 21 23 24 26 27 28 30 31 31 32 32 33 33 32 33 33 34 34 35 36 37 38 38 38 38 38 38
6 5 4 3 2 2 3 4 4 4 5 6 7 8 9 9 9 8 7 7 6 5 5 4 4 4 3 2 1 3 4 5 7 7 6 6 8 11 10 6 6 10 13 14 15 17 19 21 22 23 25 26 28 29 29 30 31 31 32 32 32 32 33 33 34 34 35 36 37 37 37 37 37 38
5 4 3 2 2 1 2 3 3 4 4 4 5 6 7 8 8 8 8 7 6 5 5 5 5 4 4 3 2 3 3 3 5 5 4 6 8 10 9 4 5 9 12 14 16 17 19 20 21 23 24 25 26 27 28 29 29 30 31 31 32 32 32 33 34 34 35 35 36 36 36 36 37 38
3 3 3 2 1 1 2 3 3 4 4 4 4 4 5 6 7 8 8 8 7 6 6 6 6 6 5 4 4 4 3 3 3 2 2 6 8 10 7 1 4 9 11 14 17 18 20 20 21 22 23 24 25 26 26 27 28 28 29 30 31 31 32 33 34 34 35 35 36 35 35 35 37 38
2 1 1 1 0 1 2 3 4 5 5 6 6 6 5 5 5 6 7 8 8 7 7 7 7 7 7 6 5 5 3 2 0 0 2 6 9 11 7 1 5 9 11 14 17 18 20 21 22 22 22 23 24 25 25 26 26 27 28 29 30 31 32 33 34 34 35 36 36 35 34 35 37 37
2 1 1 1 1 1 2 3 4 5 6 6 7 7 7 7 6 6 6 7 8 8 8 8 8 8 8 7 6 5 5 3 2 2 3 6 8 11 8 3 6 10 12 14 17 19 21 22 23 23 23 24 24 24 25 25 26 26 27 29 30 31 32 33 34 35 36 36 36 35 35 36 36 35
3 3 2 3 3 3 3 3 4 6 7 7 8 8 9 9 8 8 7 7 7 8 9 9 9 9 9 9 7 7 7 6 4 4 5 7 9 10 10 7 8 12 12 14 17 20 21 23 24 24 25 25 25 25 25 25 26 26 27 29 30 30 31 32 33 35 36 37 37 36 35 36 35 34
5 5 4 4 5 5 5 5 5 6 7 7 8 8 9 10 10 10 9 8 8 9 10 10 10 10 10 10 10 9 8 7 5 4 5 7 9 10 10 9 10 13 15 15 18 21 22 24 26 26 26 25 26 26 25 25 26 26 27 28 29 30 31 32 33 34 36 36 37 36 35 35 35 34
7 6 6 6 6 7 7 7 6 6 7 7 8 9 9 10 11 12 12 11 11 10 11 12 11 11 11 11 12 12 11 8 6 5 6 7 8 10 11 10 10 13 16 18 20 22 24 25 27 28 27 26 27 27 26 26 26 26 27 28 29 30 32 33 34 35 35 36 35 35 34 34 34 34
10 9 8 8 8 8 9 9 9 8 8 7 8 9 9 10 11 12 13 14 13 13 13 13 13 12 13 12 13 14 12 10 8 7 7 8 9 10 13 13 12 13 17 20 21 23 25 25 27 29 28 27 28 28 28 28 27 27 27 28 29 31 33 33 34 34 35 35 35 34 33 32 33 33
12 11 10 10 10 10 11 11 11 11 10 9 9 9 10 10 10 11 14 15 16 16 16 15 15 14 13 13 15 16 14 11 9 8 9 9 10 12 14 16 16 16 18 21 22 23 25 26 28 29 28 28 29 29 29 29 28 27 28 28 30 32 33 34 34 34 34 34 34 33 32 32 32 32
14 14 13 12 12 12 12 12 12 12 12 11 10 10 10 10 11 12 13 15 16 18 18 18 18 17 15 15 17 17 15 13 12 11 10 11 12 14 16 17 18 18 20 23 23 24 25 27 29 29 29 29 30 30 30 30 29 29 29 29 30 32 33 34 34 34 34 33 33 32 31 31 31 32
16 16 15 14 14 14 14 14 14 14 14 13 12 12 11 11 11 13 14 15 16 18 20 21 22 20 18 18 19 18 15 15 15 14 13 13 14 16 17 18 19 20 21 23 24 24 25 27 29 29 29 30 31 31 31 31 31 31 30 29 30 32 33 34 34 33 33 33 32 32 30 30 30 31
18 18 18 17 17 16 16 16 16 15 15 14 14 14 13 12 12 13 15 16 16 17 19 22 25 24 21 21 22 20 17 17 18 17 16 15 16 18 19 20 20 21 22 23 24 25 26 27 28 28 29 30 31 31 32 31 31 32 31 30 30 32 34 34 34 34 33 32 31 31 30 29 30 31
20 20 20 19 19 18 18 18 18 17 16 15 15 15 15 14 14 14 16 17 18 17 18 21 26 27 25 24 24 22 20 20 20 19 18 18 18 19 20 21 21 22 22 23 24 26 26 27 28 29 29 30 32 32 31 31 31 32 31 30 31 32 34 35 35 34 33 32 31 31 30 29 29 30
22 22 21 21 21 21 20 20 19 18 17 16 17 17 16 16 16 16 17 19 19 19 18 20 23 26 27 27 27 25 23 22 22 21 21 20 20 21 21 22 22 22 23 24 25 27 27 28 29 29 29 29 31 31 31 31 31 31 31 31 31 33 34 35 35 35 33 31 31 31 30 29 29 30
24 24 23 23 23 23 23 23 21 19 17 17 18 18 18 17 16 17 19 20 20 21 21 20 21 24 26 28 28 27 25 24 24 23 23 23 23 23 23 23 22 23 24 25 27 27 28 29 30 30 30 29 30 30 30 31 32 32 31 32 32 33 34 35 35 34 33 31 31 31 30 29 29 30
24 25 25 25 24 25 25 25 23 20 18 17 18 19 19 18 18 19 20 21 21 22 22 22 22 23 25 27 28 28 27 26 25 24 24 25 25 26 26 25 24 25 25 27 27 27 28 30 32 32 31 31 31 29 29 31 32 32 32 33 34 33 34 34 34 34 33 32 32 31 30 28 28 29
25 26 27 27 26 27 27 27 25 22 18 18 19 19 19 19 20 22 22 22 23 24 23 23 23 24 25 25 26 27 26 25 24 23 23 24 26 27 28 28 27 27 27 27 28 28 29 30 32 33 33 33 32 31 30 31 32 32 32 33 34 34 34 34 35 35 35 34 34 33 31 29 28 28
25 27 28 28 28 28 28 28 27 23 20 20 20 20 19 20 23 24 23 23 23 24 24 25 25 25 25 25 25 25 24 22 22 22 22 23 25 26 27 28 28 28 28 28 29 29 30 31 32 33 33 34 33 32 31 32 32 32 33 33 33 33 34 35 37 37 37 36 36 35 34 32 30 29
25 27 29 29 30 30 29 29 28 25 22 21 20 20 21 23 25 25 23 23 24 25 26 27 27 27 26 26 25 24 22 21 22 22 22 23 25 26 27 26 27 27 28 29 30 30 31 32 32 32 33 33 32 31 31 32 33 33 33 33 33 33 34 35 37 38 37 37 37 37 36 34 32 30
25 27 29 30 31 31 31 30 29 26 24 23 21 21 23 25 25 25 24 24 26 27 28 29 28 28 28 27 26 24 22 22 23 23 24 26 27 29 29 29 29 30 30 31 32 33 33 33 31 32 33 32 31 31 31 32 33 34 34 34 33 34 34 35 38 38 37 36 36 36 36 35 34 32
26 28 30 31 32 32 31 31 30 28 26 24 22 23 25 25 26 26 25 26 27 28 29 30 30 30 29 28 27 26 25 25 25 26 28 29 30 31 32 33 35 35 35 35 35 35 35 34 32 31 31 30 30 31 32 33 34 35 35 34 34 35 35 37 38 38 37 36 36 36 36 36 35 34
27 29 30 31 32 33 33 32 31 29 27 25 24 25 26 26 26 26 27 28 28 29 29 29 30 30 29 28 28 28 28 28 28 30 31 31 32 33 35 37 38 39 40 41 40 38 36 34 32 31 29 29 30 31 32 34 34 35 35 35 36 37 37 37 37 36 36 36 36 36 36 36 36 35
28 29 30 31 33 33 34 33 32 29 28 27 27 27 28 27 27 28 29 29 29 29 29 29 29 29 29 29 29 30 31 30 31 31 32 32 33 35 37 40 41 40 42 43 41 37 34 32 32 30 28 29 31 33 33 35 35 34 34 35 37 38 38 37 36 36 37 37 37 36 36 36 36 36
29 29 30 31 33 34 34 34 32 30 30 29 29 29 29 29 29 30 31 31 30 29 29 28 28 28 28 28 29 31 32 32 32 33 33 33 34 36 39 42 40 38 38 37 32 28 28 29 30 30 30 32 34 35 36 37 38 37 36 36 38 39 40 39 37 37 38 38 38 37 36 35 36 37
30 31 32 33 34 34 34 33 32 31 31 31 30 31 31 31 31 31 32 31 30 29 29 28 28 29 28 28 29 30 31 32 33 34 34 35 36 38 40 40 38 34 33 30 25 23 26 28 30 31 33 35 36 37 38 40 41 40 38 38 40 41 40 40 39 39 39 39 39 38 37 36 36 37
32 33 33 34 34 34 33 33 33 32 32 31 32 32 32 32 31 31 31 30 30 30 29 29 29 28 28 28 29 30 31 32 33 34 35 36 37 38 38 37 36 34 32 31 29 29 30 32 34 36 37 39 39 40 42 43 43 41 40 40 41 42 41 41 41 41 40 40 41 40 40 39 38 39
33 33 33 33 33 34 34 33 33 32 32 32 32 32 32 33 32 31 30 30 31 31 30 30 29 29 28 28 29 30 30 31 32 33 34 35 36 37 37 36 35 35 34 34 34 34 35 36 37 39 40 40 41 42 42 43 42 40 40 41 43 43 43 42 42 42 41 42 43 43 43 42 42 41
32 31 32 33 33 34 33 33 33 33 33 33 32 33 34 33 33 31 30 29 29 29 29 29 28 27 27 27 28 28 28 29 31 32 33 34 35 35 35 35 35 36 36 36 36 36 37 37 37 37 38 38 37 38 38 39 39 39 41 43 44 44 44 44 44 43 43 44 45 46 46 45 45 44
32 32 32 33 33 33 33 33 33 34 34 33 33 33 34 33 31 30 28 26 24 25 26 27 26 24 24 26 27 27 28 29 31 32 33 34 34 35 35 36 37 38 37 36 36 37 37 37 36 36 36 37 36 37 38 38 39 40 42 43 44 45 45 46 45 45 46 46 47 49 49 48 47 46
32 32 32 32 32 33 33 34 34 35 35 34 34 34 34 33 32 30 26 25 26 27 29 29 27 25 26 26 26 27 29 31 32 33 34 34 35 35 36 37 37 36 35 35 36 37 37 37 37 37 38 38 38 38 39 40 41 42 43 44 45 46 47 48 48 48 48 49 49 50 50 49 48 48
31 31 31 32 33 34 35 35 36 36 36 36 36 36 34 31 30 28 26 26 29 31 33 34 33 32 33 34 31 28 29 31 32 34 35 35 36 35 35 34 34 34 35 35 36 37 38 37 37 38 38 39 39 40 41 42 43 44 45 46 47 48 49 50 50 49 50 51 51 50 50 50 49 49
30 30 31 32 34 35 36 36 36 37 38 38 38 36 33 31 31 28 26 28 32 34 35 36 35 35 36 36 33 29 28 30 33 34 35 35 35 34 33 33 33 34 35 36 37 38 38 38 38 39 39 40 40 42 43 44 45 45 46 47 48 49 50 51 51 52 52 52 52 51 51 51 51 51
29 30 32 32 33 35 36 37 38 40 39 38 38 35 32 32 34 31 27 29 33 35 35 36 36 35 34 32 32 33 33 34 35 36 36 36 36 35 35 35 35 35 37 37 38 39 39 39 40 41 41 41 42 44 45 46 46 47 47 48 49 50 51 51 52 53 53 54 53 52 52 52 53 54
31 31 31 32 34 37 39 40 40 40 38 37 38 35 30 29 32 32 31 32 34 35 35 36 37 37 35 34 34 36 37 37 36 37 37 38 38 38 37 37 38 39 40 40 40 40 41 42 43 43 43 44 46 48 48 48 48 48 49 49 50 51 52 52 53 54 54 54 54 54 54 54 55 57
35 33 31 32 35 39 41 40 38 37 36 36 36 35 31 29 31 34 36 37 37 37 38 39 40 40 39 38 37 37 37 37 38 38 38 38 39 39 39 39 40 41 42 43 42 42 43 44 45 44 45 47 50 51 50 50 51 51 51 51 51 52 52 53 53 54 54 54 54 55 56 57 58 60
36 34 33 34 36 40 41 39 36 36 38 38 37 36 35 35 36 37 39 41 42 41 41 41 42 42 41 40 40 39 39 40 40 39 39 38 39 39 39 40 41 41 42 42 43 44 45 46 46 47 49 52 53 53 53 53 54 54 54 53 53 53 53 54 54 54 54 55 56 56 57 59 61 63
35 36 36 37 39 40 41 40 37 38 39 39 39 39 40 41 42 42 42 43 43 43 43 43 43 43 42 41 41 42 41 41 42 41 40 39 39 39 40 41 42 42 43 43 44 46 47 48 49 51 53 54 55 55 55 56 56 56 56 55 54 54 55 56 56 56 56 57 58 59 60 62 63 65
36 36 37 39 40 41 41 40 39 40 41 40 41 42 44 45 46 47 46 46 45 45 45 45 45 44 43 41 41 42 42 42 42 41 40 40 41 42 42 43 44 45 45 46 47 48 49 50 52 53 55 55 56 57 58 58 57 57 57 57 56 57 58 59 59 60 60 60 61 61 63 64 65 67
35 33 33 36 39 40 41 42 42 43 43 44 44 46 46 47 48 49 50 50 49 48 47 46 46 46 44 43 43 44 44 44 43 43 43 43 44 44 45 46 47 48 48 49 50 50 51 52 53 55 55 57 58 59 59 58 58 59 59 59 60 60 61 62 63 63 63 64 64 64 64 66 68 69
Wind_Direction
106 105 103 102 107 115 123 131 137 136 136 138 136 133 130 127 122 117 112 109 105 102 100 102 106 109 108 107 100 89 73 63 55 49 47 45 38 30 30 32 26 20 18 20 20 19 19 18 18 18 20 20 20 19 19 19 19 19 19 18 17 17 15 13 12 11 10 9 7 6 6 5 4 3
100 102 103 104 105 109 120 134 140 139 140 143 142 139 137 135 130 126 121 116 110 106 105 108 115 120 121 118 110 100 70 55 52 47 44 41 31 21 20 22 14 9 12 14 15 16 16 15 15 16 16 17 16 16 15 15 15 15 15 14 14 14 13 12 10 9 8 6 4 4 3 2 1 0
94 96 100 104 105 108 119 132 140 143 144 145 145 145 143 140 137 135 131 125 117 114 116 119 124 129 131 134 138 156 62 50 51 45 41 38 24 12 12 10 2 2 5 8 11 12 12 13 13 14 14 14 13 12 12 11 11 11 10 11 11 10 10 10 9 8 6 4 3 2 1 1 360 359
91 90 94 100 107 112 120 129 137 144 148 148 148 149 149 148 146 144 141 136 131 130 131 134 137 142 149 163 183 223 13 43 48 45 40 31 8 1 4 355 350 356 359 2 6 7 8 11 11 11 11 10 9 9 8 8 7 7 7 7 7 7 7 7 7 6 4 2 0 360 359 359 359 358
94 94 95 98 108 118 125 130 137 144 150 153 153 153 154 156 156 156 153 151 150 151 153 155 158 164 170 184 214 312 5 40 48 47 40 17 346 350 357 346 339 347 352 357 0 1 5 8 8 8 8 7 7 6 5 4 3 3 3 3 3 4 5 5 4 4 2 0 359 358 357 358 358 357
97 99 102 106 115 128 137 143 150 154 158 161 160 159 159 160 162 165 166 166 167 169 172 177 187 193 197 209 254 313 349 35 52 51 32 355 332 342 352 343 328 337 347 353 354 355 1 4 4 4 4 4 4 3 2 1 1 1 1 360 0 1 1 2 2 1 0 359 357 356 355 356 357 357
98 99 104 113 131 155 177 175 174 177 180 182 177 171 168 167 168 171 176 180 183 188 193 199 210 221 228 236 261 293 323 23 49 51 11 328 325 344 351 337 320 331 341 347 347 350 356 358 359 360 0 1 1 360 359 358 358 359 359 357 357 358 359 359 359 359 358 357 356 354 354 355 356 355
97 93 96 104 133 184 216 219 214 206 201 204 206 201 192 183 179 177 180 187 194 203 213 217 222 231 241 248 260 273 299 2 32 51 343 311 326 352 0 319 311 325 333 342 343 345 348 350 353 354 356 358 358 358 357 356 357 358 357 356 356 356 356 356 356 356 355 355 353 353 353 354 355 356
123 97 73 60 70 219 236 241 242 236 224 217 215 219 221 215 207 197 190 194 203 212 222 229 232 237 241 245 254 267 291 331 355 169 329 319 333 358 10 282 291 318 333 340 338 337 339 342 346 348 351 354 356 357 356 355 356 356 356 355 355 354 353 353 353 353 352 352 351 351 352 354 356 358
183 197 268 313 322 303 269 257 252 250 246 239 229 224 226 230 231 228 216 211 214 221 228 234 240 243 246 246 249 260 274 279 239 232 314 328 336 354 3 324 294 316 332 334 328 329 332 335 338 342 346 350 353 355 355 354 354 354 354 354 353 351 350 350 350 350 349 349 349 349 351 355 358 0
221 231 249 274 292 298 289 277 265 257 253 250 245 237 232 232 234 237 238 233 231 232 236 241 245 248 253 255 255 256 261 263 255 262 300 321 330 341 351 343 314 310 316 320 319 322 326 329 332 337 342 346 348 350 352 353 352 352 353 352 349 347 347 347 348 347 346 346 346 347 350 354 358 1
228 238 247 259 274 285 287 284 275 267 262 257 253 246 240 238 237 236 237 237 238 239 242 246 248 251 255 258 260 260 257 255 257 272 295 310 316 323 335 338 319 303 300 306 313 318 323 326 329 333 337 340 342 345 348 350 350 350 350 348 346 344 344 346 346 345 344 343 344 345 348 351 356 360
232 238 245 252 261 272 280 284 282 276 271 266 263 257 248 242 240 238 237 235 235 238 241 245 248 250 253 256 259 260 257 255 257 267 278 287 297 306 313 318 312 301 299 304 311 315 319 323 324 325 329 334 337 340 344 346 347 348 347 344 343 343 344 345 345 343 342 341 341 343 344 347 352 355
238 240 244 249 255 263 270 277 283 285 282 275 269 265 259 250 243 240 239 237 237 237 240 244 247 249 253 254 257 260 260 258 259 267 274 277 284 293 298 299 301 301 301 302 305 308 311 316 318 318 323 328 331 335 340 342 343 344 343 341 342 343 345 345 343 341 340 339 339 340 341 343 347 350
239 242 245 248 253 258 263 270 278 284 286 285 278 270 265 260 251 244 240 238 238 237 241 245 247 249 253 254 256 261 265 266 265 266 270 274 280 285 290 293 295 298 298 297 298 302 305 309 312 314 319 323 325 329 333 336 339 340 339 340 342 343 343 342 341 339 339 338 338 338 338 339 341 343
240 243 246 248 251 255 259 264 271 277 283 286 285 278 272 266 260 251 244 240 237 235 238 243 246 248 251 254 256 259 264 267 269 269 270 273 277 281 283 285 288 293 296 297 298 301 301 303 306 311 316 319 320 323 327 330 334 336 337 339 341 340 339 339 339 339 338 337 335 334 335 335 336 338
240 243 245 247 251 256 259 261 264 269 276 283 287 285 278 270 262 256 252 247 239 233 232 237 243 246 247 253 258 260 260 262 266 270 272 273 274 278 279 281 285 292 297 298 298 298 298 299 303 310 316 316 316 318 322 326 330 331 332 335 337 336 335 336 337 337 337 335 333 332 332 333 333 334
241 241 242 244 248 254 259 262 262 263 267 273 282 287 284 276 266 259 256 253 247 238 231 232 238 242 243 248 257 261 259 261 265 270 274 276 276 276 278 281 286 293 297 296 295 296 296 296 301 309 315 314 313 315 318 322 325 326 327 330 332 332 332 333 334 336 336 335 334 332 332 332 332 332
244 242 241 242 245 248 253 259 263 264 265 266 273 281 284 281 275 265 258 256 254 248 238 232 235 238 238 242 251 257 258 261 266 270 274 277 278 278 279 282 287 294 297 295 293 293 294 294 298 305 311 312 311 312 314 317 320 321 322 325 327 328 329 330 332 335 336 336 336 335 333 332 332 332
246 246 244 243 244 246 249 253 257 261 264 266 270 275 279 280 279 270 261 257 256 254 247 240 237 237 237 239 244 250 254 259 264 269 273 277 280 281 282 284 289 295 299 296 291 290 290 290 293 299 305 308 308 308 311 315 317 317 318 320 323 325 327 328 330 333 335 336 337 337 335 332 330 331
246 248 247 245 244 245 248 252 256 258 259 261 265 269 274 278 278 270 263 259 256 254 252 249 244 241 240 240 241 244 249 255 261 266 272 277 280 281 283 286 290 293 294 291 287 286 287 286 288 293 299 303 304 305 308 311 313 314 314 316 318 321 323 326 329 332 334 336 337 338 336 332 330 330
248 248 247 246 245 244 246 250 255 258 258 258 259 262 267 273 274 268 263 259 256 255 255 253 251 248 246 244 243 243 246 251 258 263 269 274 278 280 282 285 286 287 288 287 286 286 287 286 286 288 294 299 301 301 304 307 310 311 311 312 314 317 319 322 328 334 336 336 337 337 335 333 331 329
246 248 249 247 245 244 245 248 251 253 254 255 256 258 261 267 268 264 262 261 259 256 256 255 254 253 252 250 248 246 248 253 258 263 268 272 276 279 280 282 283 284 287 287 288 290 291 289 287 287 290 295 297 298 299 302 305 307 308 309 311 313 315 319 326 333 336 336 336 335 334 333 332 330
244 247 249 249 247 244 245 247 248 249 249 250 252 255 258 261 262 261 263 264 261 257 255 255 255 256 256 255 253 253 256 261 266 270 273 275 277 278 280 283 285 288 291 292 292 293 294 292 291 290 291 291 293 294 296 299 302 304 306 308 308 309 311 316 323 329 333 334 333 332 332 332 331 330
241 246 248 248 247 246 246 247 247 246 246 247 249 251 254 257 260 262 263 262 260 258 255 254 255 257 258 258 257 260 264 269 271 273 274 275 276 278 281 285 289 291 292 292 291 291 291 291 292 293 292 290 290 290 293 296 300 303 304 305 304 305 308 313 318 322 327 330 330 329 330 329 329 329
237 241 244 245 246 246 247 248 247 246 246 248 248 247 249 253 258 261 262 260 259 258 256 255 256 258 260 262 264 267 270 272 272 273 274 274 275 278 283 287 288 288 287 287 288 287 285 286 288 291 291 290 290 291 293 295 298 300 302 302 301 303 306 310 313 316 320 324 325 326 326 327 326 327
234 237 240 241 244 246 247 248 248 246 247 249 248 247 248 250 254 258 261 260 259 258 258 258 258 259 262 267 269 270 270 269 270 272 274 275 278 282 285 287 287 288 287 288 291 290 286 282 283 285 287 289 292 295 296 297 298 299 300 301 302 303 306 309 311 313 316 319 322 323 323 325 325 325
235 235 237 239 241 244 246 247 247 247 248 248 247 247 249 250 251 255 258 260 260 260 261 261 261 263 265 268 268 268 268 269 270 272 275 278 282 285 286 287 288 290 290 291 290 288 284 282 281 281 284 288 292 294 295 297 299 299 300 302 303 305 307 310 312 313 314 316 319 320 321 323 325 325
237 237 237 239 241 243 244 246 247 247 248 247 247 248 250 251 251 252 254 257 259 261 262 264 265 266 266 266 266 266 267 270 273 276 279 282 284 286 287 288 290 292 294 296 293 284 279 279 280 280 284 288 291 292 294 296 298 299 300 303 305 306 308 310 312 314 314 315 316 316 317 319 322 323
240 240 240 240 241 243 245 246 248 248 248 248 248 249 251 251 251 251 253 255 258 262 264 266 267 267 266 266 266 266 268 271 275 279 282 284 286 287 287 288 292 296 302 306 301 287 276 276 279 282 286 289 290 291 293 296 298 299 302 305 307 308 309 310 311 313 314 314 314 314 312 313 317 320
241 240 240 240 242 244 246 248 250 251 252 253 253 254 254 254 254 253 254 256 259 262 265 266 266 267 269 269 269 269 270 272 275 278 281 282 282 283 284 288 294 299 304 307 303 291 283 283 284 287 289 290 290 291 293 296 298 299 301 305 307 309 309 310 311 313 314 315 315 315 314 312 313 317
238 238 239 241 244 246 247 249 251 253 256 258 259 259 260 260 258 256 256 258 260 262 263 264 265 267 267 268 268 268 269 272 274 276 277 279 280 281 284 289 293 295 299 302 300 295 292 292 292 292 291 290 291 291 292 294 296 298 299 303 307 309 310 311 312 314 315 317 317 318 318 316 313 314
238 238 239 242 244 246 248 250 253 256 258 260 261 263 263 262 262 261 260 259 259 259 260 262 263 263 264 264 266 267 269 271 273 275 278 283 287 287 287 288 291 293 296 300 300 298 296 295 294 293 292 292 292 292 291 292 293 295 298 302 306 308 310 312 314 315 316 318 319 319 318 316 314 312
240 239 240 241 243 246 249 252 255 257 259 260 261 262 263 263 263 263 260 257 257 258 258 257 258 260 264 266 268 270 271 272 274 278 284 289 291 290 289 289 291 293 295 296 298 298 296 294 292 292 292 294 295 295 295 294 294 296 299 302 305 308 310 313 314 314 315 316 317 317 316 315 313 312
240 239 240 241 244 247 250 253 256 258 259 260 261 261 261 261 260 258 256 256 260 262 261 259 260 264 268 270 271 271 272 275 279 283 288 291 291 291 291 291 291 291 292 294 294 294 293 291 290 290 292 295 296 296 296 296 296 298 301 303 306 309 311 312 313 313 313 313 314 314 314 313 312 311
239 239 240 242 245 248 251 254 256 257 258 259 259 258 258 258 257 258 262 267 270 270 269 268 270 272 273 273 274 275 276 278 282 286 289 291 292 292 292 290 289 289 291 291 291 290 289 289 289 290 292 294 296 296 297 298 300 302 304 306 308 310 310 311 311 311 311 311 312 312 312 311 310 310
239 239 240 242 245 248 251 252 254 256 257 257 254 252 254 258 261 263 268 271 271 270 271 273 274 276 275 272 270 273 279 282 285 288 290 290 291 291 290 289 288 289 289 290 289 288 288 288 289 290 292 294 296 299 300 302 303 304 306 307 308 309 309 309 309 309 309 309 310 310 309 309 308 307
239 237 239 241 245 248 251 252 254 255 254 253 252 252 258 267 272 274 276 277 275 275 277 280 283 285 284 275 265 266 279 287 287 288 290 290 290 289 286 284 285 286 286 287 287 286 286 287 289 290 291 293 296 298 300 301 301 302 304 305 306 306 307 307 308 308 308 308 308 308 308 307 306 305
235 234 236 239 244 248 250 250 250 250 250 252 256 259 263 269 275 281 286 285 284 285 287 290 292 293 291 282 271 270 280 287 287 287 289 290 289 287 284 283 284 284 284 285 286 285 286 287 288 289 289 291 293 296 297 298 299 300 301 302 303 304 304 305 306 307 307 307 307 307 306 306 305 304
229 229 233 238 244 248 249 248 248 251 254 260 265 267 267 269 275 282 285 284 284 286 289 293 295 294 293 289 284 282 284 285 285 286 289 290 289 286 284 284 286 286 286 286 285 284 285 287 289 289 289 290 292 295 296 297 297 298 300 300 301 302 303 304 305 306 306 307 306 306 305 304 304 304
230 228 230 237 244 248 249 249 252 258 262 266 271 274 275 275 275 279 282 283 283 285 288 291 293 293 292 290 288 287 285 282 282 284 287 288 287 285 284 286 288 288 287 286 284 283 286 289 290 289 289 291 293 295 296 296 297 298 299 300 301 301 301 302 303 304 304 305 304 304 304 303 304 304
240 238 237 242 249 253 254 255 258 261 263 267 272 276 277 276 274 274 276 279 282 285 288 290 290 288 288 287 286 286 284 282 282 284 286 287 285 284 285 287 288 288 288 286 283 283 286 289 290 289 290 293 294 295 296 297 297 298 299 300 300 300 300 301 302 302 303 303 303 302 302 302 302 302
245 244 243 245 249 254 259 261 262 261 262 265 269 271 272 274 275 276 277 279 281 284 287 287 286 285 285 285 284 284 283 282 284 285 286 286 285 285 286 286 286 287 287 286 285 286 287 289 289 289 290 292 294 295 296 297 297 298 299 300 300 300 300 301 302 302 302 302 301 301 301 300 299 299
246 244 245 247 249 253 257 259 260 260 262 263 265 267 269 272 276 280 281 281 281 283 284 284 284 283 283 283 284 283 283 285 286 286 286 286 285 285 285 285 285 286 287 287 288 288 288 288 289 290 291 293 294 295 296 297 297 298 299 300 300 301 301 301 301 302 302 301 300 299 299 298 298 299
254 251 248 248 249 251 253 255 256 258 260 262 264 266 269 271 275 279 281 283 283 284 284 284 284 284 284 284 285 285 285 286 286 286 285 285 284 284 284 285 286 287 288 289 289 289 289 289 291 292 293 294 295 295 296 297 298 299 299 300 300 300 300 300 300 301 300 300 299 298 297 297 298 300